Regional Weather Roundup
Issued by NWS Green Bay, WI

Home | Current Version | Previous Version | Graphics & Text | Print | Product List | Glossary Off
Versions: 1 2 3 4 5 6 7 8 9 10 11 12 13 14 15 16 17 18 19 20 21 22 23 24 25 26 27 28 29 30 31 32 33 34 35 36 37 38 39 40 41 42 43 44 45 46 47 48 49 50

000
ASUS43 KGRB 200259
RWRGRB

NORTH-CENTRAL AND NORTHEAST WISCONSIN REGIONAL WEATHER ROUNDUP
NATIONAL WEATHER SERVICE GREEN BAY WI
1000 PM CDT FRI SEP 19 2014

WIZ005-009-010>012-018-019-200400-
NORTH CENTRAL WISCONSIN

CITY           SKY/WX    TMP DP  RH WIND       PRES   REMARKS
IRONWOOD       CLOUDY    66  59  77 SW8G16    29.64F
MANITOWISH WTR NOT AVBL
ARBOR VITAE    NOT AVBL
EAGLE RIVER    NOT AVBL
LAND O LAKES   NOT AVBL
RHINELANDER    CLOUDY    64  53  67 SW16G28   29.74F
PHILLIPS       NOT AVBL
ANTIGO         NOT AVBL
TOMAHAWK       NOT AVBL
MERRILL        NOT AVBL
$$

WIZ013-073-200400-
NORTHEAST WISCONSIN

CITY           SKY/WX    TMP DP  RH WIND       PRES   REMARKS
IRON MOUNTAIN  CLOUDY    65  52  62 S9        29.73R
MARINETTE      CLOUDY    63  52  67 SW12G18   29.77F
$$

WIZ017-030-035>037-045-200400-
CENTRAL WISCONSIN

CITY           SKY/WX    TMP DP  RH WIND       PRES   REMARKS
MEDFORD        NOT AVBL
WAUSAU         MOCLDY    66  53  63 S15G26    29.76F
MOSINEE        MOCLDY    64  55  72 S14G21    29.80S
MARSHFIELD     CLOUDY    66  54  65 S14       29.79S
WISC RAPIDS    CLOUDY    65  54  67 SW7       29.83S
STEVENS POINT  NOT AVBL
WAUPACA        NOT AVBL
SHAWANO        NOT AVBL
CLINTONVILLE   NOT AVBL
$$

WIZ038-039-048-051-200400-
FOX VALLEY

CITY           SKY/WX    TMP DP  RH WIND       PRES   REMARKS
NWS GREEN BAY  MOCLDY    66  53  63 S10       29.83S
APPLETON       MOCLDY    64  50  59 SW14G23   29.84S
OSHKOSH        PTCLDY    65  52  62 S14G22    29.82F
FOND DU LAC    PTCLDY    66  49  54 S14       29.84S
$$

WIZ022-050-052-200400-
EAST CENTRAL WISCONSIN

CITY           SKY/WX    TMP DP  RH WIND       PRES   REMARKS
STURGEON BAY   CLOUDY    63  52  67 S14G21    29.82F
MANITOWOC      NOT AVBL
SHEBOYGAN      PTCLDY    61  49  64 S10       29.86F
$$

LMZ563-521-522-541>543-200400-
LAKESHORE

STATION/POSITION TIME  TEMP    WIND        PRES    VSBY  WAVE
                       AIR SEA DIR/SP/G                  HT/PER
                 (UTC) (F)     (DEG/KT/KT) (MB)    (MI)  (FT/S)
SHEBOYGAN LKSHOR 0200   63 54  190/ 24/ 27 1011.5F
KEWAUNEE LKSHORE 0200   60     190/ 11/ 15 1009.8S
NORTHPORT PIER   0200   63     160/  9/ 21 1010.2R
N MID LAKE BUOY  0200   62 58  200/ 25/ 31 1009.4R        10/ 8
CHAMBERS ISLAND  0200   62     160/  6/ 15 1010.2R
MENOMINEE LKSHOR 0200   62     180/ 16/ 21 1008.9F
$$


USA.gov is the U.S. government's official web portal to all federal, state and local government web resources and services.